TimeCDT,TemperatureF,Dew PointF,Humidity,Sea Level PressureIn,VisibilityMPH,Wind Direction,Wind SpeedMPH,Gust SpeedMPH,PrecipitationIn,Events,Conditions,WindDirDegrees,DateUTC
12:00 AM,64.4,60.8,88,29.90,10.0,SE,13.8,-,0.00,Rain,Light Rain,140,2013-06-09 05:00:00
12:53 AM,63.0,60.1,90,29.86,10.0,South,13.8,-,0.00,,Clear,170,2013-06-09 05:53:00
1:53 AM,63.0,60.1,90,29.84,10.0,South,12.7,-,N/A,,Clear,180,2013-06-09 06:53:00
2:53 AM,62.1,59.0,90,29.84,10.0,SW,8.1,-,N/A,,Clear,220,2013-06-09 07:53:00
3:53 AM,61.0,60.1,97,29.83,10.0,SW,6.9,-,N/A,,Clear,220,2013-06-09 08:53:00
4:53 AM,61.0,59.0,93,29.86,10.0,WSW,4.6,-,N/A,,Clear,250,2013-06-09 09:53:00
5:53 AM,61.0,59.0,93,29.90,10.0,West,6.9,-,N/A,,Clear,260,2013-06-09 10:53:00
6:53 AM,62.1,60.1,93,29.91,10.0,West,10.4,-,N/A,,Clear,260,2013-06-09 11:53:00
7:53 AM,64.9,61.0,87,29.90,10.0,SW,10.4,-,N/A,,Clear,230,2013-06-09 12:53:00
8:53 AM,69.1,62.1,78,29.92,10.0,West,9.2,-,N/A,,Clear,280,2013-06-09 13:53:00
9:53 AM,73.0,63.0,71,29.95,10.0,NW,9.2,-,N/A,,Clear,320,2013-06-09 14:53:00
10:53 AM,77.0,63.0,62,29.96,10.0,WNW,9.2,-,N/A,,Clear,300,2013-06-09 15:53:00
11:53 AM,80.1,61.0,52,29.96,10.0,Variable,4.6,-,N/A,,Clear,0,2013-06-09 16:53:00
12:53 PM,82.0,55.9,41,29.94,10.0,Calm,Calm,-,N/A,,Clear,0,2013-06-09 17:53:00
1:53 PM,87.1,48.9,27,29.92,10.0,North,4.6,-,N/A,,Clear,350,2013-06-09 18:53:00
2:53 PM,88.0,41.0,19,29.91,10.0,Calm,Calm,-,N/A,,Clear,0,2013-06-09 19:53:00
3:53 PM,87.1,46.9,25,29.90,10.0,Calm,Calm,-,N/A,,Clear,0,2013-06-09 20:53:00
4:53 PM,89.1,46.0,22,29.88,10.0,Variable,4.6,-,N/A,,Clear,0,2013-06-09 21:53:00
5:53 PM,89.1,45.0,22,29.86,10.0,Calm,Calm,-,N/A,,Clear,0,2013-06-09 22:53:00
6:53 PM,89.1,43.0,20,29.86,10.0,Calm,Calm,-,N/A,,Clear,0,2013-06-09 23:53:00
7:53 PM,87.1,46.9,25,29.86,10.0,Calm,Calm,-,N/A,,Clear,0,2013-06-10 00:53:00
8:53 PM,78.1,57.0,48,29.87,10.0,South,5.8,-,N/A,,Clear,180,2013-06-10 01:53:00
9:53 PM,73.9,57.9,57,29.87,10.0,South,8.1,-,N/A,,Clear,190,2013-06-10 02:53:00
10:53 PM,75.9,55.0,48,29.88,10.0,South,11.5,-,N/A,,Clear,180,2013-06-10 03:53:00
11:53 PM,75.9,55.9,50,29.86,10.0,South,17.3,-,N/A,,Clear,180,2013-06-10 04:53:00